User: anonymous   Login
Location: Unspecified
(48.2082°N, 0.0000°E)
Time: 01:21:52
(UTC+00:00)
Language:

Altair - Orbit

View from above orbital plane
View from above orbital plane
View from above satellite
View from above satellite

Ground track
Ground track

The orbit data is extracted from the following two-line orbital elements,

1    50U 60009B   19167.12983971 -.00000101  00000-0 -14973-3 0  9995
2    50  47.2285 181.3164 0114306 310.6133  48.4758 12.20109435625827
Epoch (UTC): 16 June 2019 03:06:58
Eccentricity: 0.0114306
inclination: 47.2285°
perigee height: 1501 km
apogee height: 1683 km
right ascension of ascending node: 181.3164°
argument of perigee: 310.6133°
revolutions per day: 12.20109435
mean anomaly at epoch: 48.4758°
orbit number at epoch: 62582

The dashed part of the orbit path shows where the satellite is in the earth's shadow,  

DLR